Home > Weather > Fall River > Past weeks

Flag for USA Past Weather in Fall River, Massachusetts, USA — Yesterday and Last 2 Weeks

Now
67 °F

Clear.


Feels Like: 67 °F
Forecast: 66 / 80 °F
Wind: 5 mph from Southwest

Location: New Bedford Regional Airport

Current Time: Jul 2, 2016 at 5:46:21 AM

Latest Report: Jul 2, 2016 at 4:53 AM


Visibility: 10 mi

Pressure: 29.81 "Hg

Humidity: 93%

Dew Point: 65 °F

Location of Fall RiverLocation

Past Weather in Fall River — Graph

°F

Fall River Temperature Yesterday

Maximum temperature yesterday: 81 °F (at 10:53 AM)
Minimum temperature yesterday: 63 °F (at 4:53 AM)
Average temperature yesterday: 73 °F

High & Low Weather Summary for the Past Weeks

 TemperatureHumidityPressure
High85 °F (Jun 30, 12:53 PM)97% (Jun 20, 5:53 AM)30.35 "Hg (Jun 20, 5:53 AM)
Low50 °F (Jun 19, 3:53 AM)27% (Jun 18, 2:53 PM)29.70 "Hg (Jun 21, 6:53 PM)
Average69 °F70%30.02 "Hg
* Reported Jun 17 3:53 AM — Jul 2 3:53 AM, Fall River, Weather by CustomWeather, © 2016

Note: Actual official high and low records may vary slightly from our data, if they occured in-between our weather recording intervals... More about our weather records

Advertising

Fall River Weather History for the Previous 24 Hours

Scroll right to see more
 ConditionsComfort  
Time TempWeatherWind HumidityBarometerVisibility
3:53 AM
Sat, Jul 2
68 °FPassing clouds.6 mph93%29.82 "Hg8 mi
2:53 AM68 °FPassing clouds.6 mph93%29.82 "Hg10 mi
1:53 AM68 °FPassing clouds.7 mph90%29.82 "Hg10 mi
12:53 AM69 °FClear.8 mph90%29.82 "Hg10 mi
11:53 PM
Fri, Jul 1
70 °FPartly cloudy.8 mph93%29.83 "Hg10 mi
10:53 PM70 °FLight rain. Passing clouds.6 mph93%29.85 "Hg10 mi
9:53 PM72 °FThundershowers. Partly cloudy.9 mph91%29.87 "Hg10 mi
8:53 PM73 °FLight rain. Low clouds.10 mph90%29.88 "Hg10 mi
7:53 PM73 °FMostly cloudy.16 mph88%29.89 "Hg10 mi
6:53 PM74 °FMostly cloudy.12 mph85%29.91 "Hg10 mi
5:53 PM74 °FLight rain. Overcast.10 mph85%29.92 "Hg6 mi
4:53 PM74 °FMostly cloudy.14 mph76%29.95 "Hg10 mi
3:53 PM74 °FMostly cloudy.13 mph74%29.96 "Hg10 mi
2:53 PM76 °FPartly sunny.7 mph74%29.99 "Hg10 mi
1:53 PM78 °FBroken clouds.14 mph64%30.00 "Hg10 mi
12:53 PM80 °FPartly sunny.13 mph64%30.01 "Hg10 mi
11:53 AM80 °FSunny.13 mph60%30.02 "Hg10 mi
10:53 AM81 °FSunny.12 mph53%30.02 "Hg10 mi
9:53 AM79 °FSunny.10 mph58%30.02 "Hg10 mi
8:53 AM79 °FSunny.12 mph58%30.03 "Hg10 mi
7:53 AM74 °FSunny.7 mph74%30.03 "Hg10 mi
6:53 AM68 °FSunny.6 mph90%30.03 "Hg10 mi
5:53 AM63 °FClear.No wind93%30.03 "Hg10 mi
Weather by CustomWeather, © 2016

See weather overviewHow to use our weather pages